1517310000.53,49949,9.75,73068.5,-10.59,-9.97,-9.79,0,*64
1517310001.74,49950,9.75,73064.3,-10.53,-9.75,-9.75,0,*66
1517310002.95,49951,9.75,73060.5,-10.53,-10.01,-9.89,0,*5F
1517310004.17,49952,9.75,73054.0,-10.49,-10.49,-10.35,0,*64
1517310005.44,49953,9.75,73062.3,-10.49,-10.79,-10.67,0,*61
1517310006.69,49954,9.75,73066.8,-10.45,-11.29,-11.23,0,*6F
1517310007.95,49955,9.75,73074.5,-10.45,-11.81,-11.67,0,*6C
1517310009.21,49956,9.75,73070.0,-10.43,-11.73,-11.59,0,*69
1517310010.51,49957,9.75,73052.3,-10.41,-12.07,-11.97,0,*68
1517310011.79,49958,9.75,73042.3,-10.41,-12.53,-12.39,0,*61
1517310013.09,49959,9.75,73032.5,-10.41,-12.71,-12.57,0,*68
1517310014.36,49960,9.75,73038.3,-10.43,-12.57,-12.53,0,*60
1517310015.62,49961,9.75,73048.8,-10.45,-12.83,-12.79,0,*66
1517310016.88,49962,9.75,73056.8,-10.45,-12.79,-12.65,0,*6D
1517310018.12,49963,9.75,73066.3,-10.47,-12.97,-12.89,0,*6C
1517310019.39,49964,9.75,73060.0,-10.45,-12.65,-12.53,0,*63
1517310020.6,49965,9.75,73060.5,-10.43,-12.39,-12.25,0,*6C
1517310021.82,49966,9.75,73052.8,-10.45,-13.11,-12.97,0,*6B
1517310023.08,49967,9.75,73064.3,-10.47,-13.73,-13.61,0,*64
1517310024.37,49968,9.75,73046.8,-10.47,-13.97,-13.87,0,*69
1517310025.63,49969,9.75,73056.3,-10.49,-13.87,-13.83,0,*63
1517310026.9,49970,9.75,73058.3,-10.51,-13.87,-13.73,0,*6D
1517310028.14,49971,9.75,73050.3,-10.53,-12.93,-12.79,0,*61
1517310029.38,49972,9.75,73044.5,-10.53,-13.07,-13.01,0,*60
1517310030.63,49973,9.75,73046.5,-10.55,-13.19,-13.19,0,*61
1517310031.9,49974,9.75,73050.3,-10.53,-12.65,-12.61,0,*64
1517310033.17,49975,9.75,73052.3,-10.53,-12.79,-12.75,0,*6D
1517310034.43,49976,9.75,73056.3,-10.55,-13.07,-13.01,0,*62
1517310035.68,49977,9.75,73070.3,-10.55,-13.19,-13.23,0,*6C
1517310036.92,49978,9.75,73060.8,-10.55,-13.43,-13.51,0,*69
1517310038.16,49979,9.75,73054.0,-10.59,-14.23,-14.11,0,*66
1517310039.42,49980,9.75,73048.5,-10.59,-13.61,-13.47,0,*65
1517310040.72,49981,9.75,73044.5,-10.63,-14.05,-14.05,0,*69
1517310041.99,49982,9.75,73048.8,-10.65,-14.01,-14.01,0,*6C
1517310043.22,49983,9.75,73006.3,-10.63,-13.65,-13.73,0,*6C
1517310044.5,49984,9.75,73018.5,-10.67,-14.19,-14.05,0,*65
1517310045.74,49985,9.75,73040.0,-10.67,-13.73,-13.65,0,*6E
1517310047.03,49986,9.75,73006.0,-10.67,-13.33,-13.33,0,*6A
1517310048.25,49987,9.75,72954.5,-10.69,-13.23,-13.11,0,*64
1517310049.52,49988,9.75,72908.8,-10.67,-13.01,-12.89,0,*65
1517310050.79,49989,9.75,72920.5,-10.67,-12.89,-12.75,0,*66
1517310052.03,49990,9.75,72978.5,-10.67,-12.93,-12.89,0,*66
1517310053.29,49991,9.75,72980.0,-10.69,-13.79,-13.79,0,*62
1517310054.51,49992,9.75,72980.8,-10.69,-13.19,-13.19,0,*61
1517310055.74,49993,9.75,72964.5,-10.69,-12.25,-12.21,0,*64
1517310057.03,49994,9.75,72990.3,-10.67,-11.67,-11.55,0,*68
1517310058.32,49995,9.75,72976.3,-10.67,-11.51,-11.33,0,*6C
1517310059.58,49996,9.75,72986.0,-10.63,-11.55,-11.45,0,*6E
1517310060.85,49997,9.69,72988.0,-10.57,-12.11,-11.85,0,*67
1517310062.07,49998,9.75,73000.5,-10.57,-11.41,-11.15,0,*67
1517310063.31,49999,9.75,73020.3,-10.55,-11.11,-10.89,0,*65
1517310064.56,50000,9.69,73032.8,-10.53,-10.93,-10.71,0,*6E
1517310065.83,50001,9.75,73034.3,-10.49,-10.79,-10.63,0,*63
1517310067.12,50002,9.75,73040.0,-10.47,-11.29,-11.07,0,*69
1517310068.34,50003,9.75,73048.0,-10.45,-11.11,-10.97,0,*69
1517310069.6,50004,9.75,73040.3,-10.45,-11.93,-11.81,0,*62
1517310070.85,50005,9.75,73038.0,-10.43,-11.67,-11.45,0,*66
1517310072.1,50006,9.75,73056.8,-10.43,-12.53,-12.43,0,*64
1517310073.35,50007,9.75,73076.8,-10.43,-12.57,-12.39,0,*6C
1517310074.59,50008,9.75,73062.8,-10.43,-12.97,-12.83,0,*6E
1517310075.81,50009,9.75,73032.8,-10.43,-13.15,-13.11,0,*6E
1517310077.04,50010,9.75,73018.5,-10.43,-12.21,-12.21,0,*62
1517310078.26,50011,9.75,72998.3,-10.43,-13.23,-13.15,0,*66
1517310079.55,50012,9.75,72988.5,-10.41,-12.65,-12.57,0,*63
1517310080.8,50013,9.75,72974.8,-10.43,-12.25,-12.11,0,*66
1517310082.07,50014,9.75,72990.5,-10.43,-12.65,-12.65,0,*66
1517310083.31,50015,9.75,72992.0,-10.43,-12.97,-12.83,0,*62
1517310084.58,50016,9.75,72994.8,-10.43,-12.57,-12.53,0,*60
1517310085.81,50017,9.75,72994.5,-10.43,-12.39,-12.21,0,*6C
1517310087.03,50018,9.75,72994.0,-10.43,-12.29,-12.21,0,*62
1517310088.25,50019,9.75,72996.3,-10.43,-12.43,-12.43,0,*6B
1517310089.47,50020,9.75,73018.0,-10.43,-12.39,-12.43,0,*6C
1517310090.71,50021,9.75,73030.3,-10.41,-12.39,-12.39,0,*62
1517310091.94,50022,9.75,73028.3,-10.43,-12.25,-12.29,0,*6F
1517310093.16,50023,9.75,73036.0,-10.43,-12.39,-12.39,0,*62
1517310094.39,50024,9.75,73038.3,-10.43,-12.29,-12.29,0,*65
1517310095.6,50025,9.75,73048.5,-10.43,-12.39,-12.25,0,*69
1517310096.82,50026,9.75,73052.8,-10.43,-12.39,-12.25,0,*6A
1517310098.04,50027,9.75,73056.8,-10.45,-12.29,-12.29,0,*60
1517310099.26,50028,9.69,73060.8,-10.43,-12.43,-12.43,0,*69
1517310100.49,50029,9.69,73062.5,-10.43,-12.21,-12.21,0,*68
1517310101.71,50030,9.75,73080.0,-10.43,-12.25,-12.25,0,*60
1517310102.99,50031,9.75,73080.0,-10.43,-12.79,-12.71,0,*69
1517310104.23,50032,9.75,73086.5,-10.45,-12.25,-12.11,0,*63
1517310105.45,50033,9.75,73092.8,-10.43,-12.39,-12.29,0,*62
1517310106.68,50034,9.75,73104.3,-10.43,-12.21,-12.25,0,*60
1517310107.91,50035,9.69,73100.3,-10.43,-12.21,-12.29,0,*6D
1517310109.13,50036,9.75,73092.8,-10.43,-12.93,-12.97,0,*62
1517310110.42,50037,9.75,73100.3,-10.47,-12.75,-12.83,0,*6A
1517310111.66,50038,9.75,73096.5,-10.45,-12.57,-12.43,0,*6B
1517310112.88,50039,9.75,73094.5,-10.45,-12.29,-12.21,0,*67
1517310114.1,50040,9.75,73078.8,-10.45,-12.39,-12.29,0,*60
1517310115.33,50041,9.75,73072.3,-10.45,-12.57,-12.43,0,*65
1517310116.58,50042,9.75,73072.3,-10.45,-12.25,-12.11,0,*64
1517310117.8,50043,9.75,73066.3,-10.45,-12.21,-12.21,0,*62
1517310119.08,50044,9.75,73052.8,-10.43,-12.11,-12.07,0,*64
1517310120.34,50045,9.75,73028.8,-10.43,-11.85,-11.85,0,*62
1517310121.64,50046,9.75,73024.3,-10.41,-11.97,-11.85,0,*60
1517310122.94,50047,9.75,73018.0,-10.41,-11.93,-11.81,0,*61
1517310124.24,50048,9.69,73014.3,-10.41,-12.07,-11.85,0,*64
1517310125.51,50049,9.75,73020.3,-10.43,-12.11,-12.07,0,*69
1517310126.81,50050,9.75,73024.3,-10.37,-12.15,-12.07,0,*66
1517310128.1,50051,9.75,73026.5,-10.37,-11.77,-11.55,0,*64
1517310129.32,50052,9.75,73030.3,-10.35,-11.23,-11.19,0,*6C
1517310130.53,50053,9.75,73040.0,-10.35,-11.19,-11.15,0,*68
1517310131.79,50054,9.75,73036.0,-10.33,-12.03,-11.97,0,*6B
1517310133.06,50055,9.75,73030.5,-10.31,-11.59,-11.59,0,*66
1517310134.27,50056,9.69,73022.0,-10.31,-11.11,-11.01,0,*64
1517310135.54,50057,9.75,73022.8,-10.31,-11.55,-11.29,0,*6F
1517310136.81,50058,9.69,73018.0,-10.29,-11.29,-11.19,0,*61
1517310138.1,50059,9.69,73026.0,-10.29,-11.67,-11.67,0,*63
1517310139.37,50060,9.75,73032.8,-10.27,-11.93,-12.07,0,*69
1517310140.64,50061,9.75,73018.3,-10.27,-12.53,-12.53,0,*66
1517310141.88,50062,9.75,73026.3,-10.27,-12.35,-12.39,0,*69
1517310143.15,50063,9.75,73038.5,-10.27,-12.79,-12.75,0,*68
1517310144.37,50064,9.69,73028.3,-10.27,-12.97,-12.89,0,*6C
1517310145.61,50065,9.75,73024.8,-10.29,-14.11,-14.11,0,*6C
1517310146.91,50066,9.75,73038.5,-10.29,-14.55,-14.55,0,*6F
1517310148.2,50067,9.75,73036.3,-10.33,-14.55,-14.47,0,*66
1517310149.47,50068,9.75,73020.5,-10.35,-14.75,-14.83,0,*65
1517310150.71,50069,9.75,73012.0,-10.37,-13.73,-13.73,0,*6F
1517310151.93,50070,9.75,73042.8,-10.43,-12.97,-12.93,0,*60
1517310153.2,50071,9.75,73046.3,-10.41,-13.93,-13.83,0,*66
1517310154.42,50072,9.75,73040.5,-10.43,-13.65,-13.55,0,*65
1517310155.69,50073,9.75,73046.8,-10.41,-13.29,-13.23,0,*6F
1517310156.91,50074,9.75,73040.3,-10.43,-13.55,-13.51,0,*64
1517310158.13,50075,9.75,73052.5,-10.43,-13.15,-13.11,0,*65
1517310159.34,50076,9.75,73054.8,-10.45,-13.23,-13.15,0,*61
1517310160.56,50077,9.75,73064.5,-10.47,-13.47,-13.47,0,*67
1517310161.79,50078,9.75,73054.3,-10.45,-14.15,-14.23,0,*6F
1517310163.03,50079,9.75,73040.3,-10.47,-14.19,-14.29,0,*6A
1517310164.27,50080,9.75,73022.5,-10.51,-14.19,-14.19,0,*68
1517310165.55,50081,9.75,73028.5,-10.51,-14.37,-14.47,0,*6E
1517310166.82,50082,9.69,73028.0,-10.53,-14.05,-14.01,0,*6C
1517310168.04,50083,9.75,73008.3,-10.53,-14.33,-14.37,0,*6D
1517310169.28,50084,9.75,72994.0,-10.55,-13.55,-13.43,0,*6F
1517310170.53,50085,9.75,73018.5,-10.55,-14.19,-14.37,0,*65
1517310171.77,50086,9.75,73016.3,-10.55,-13.55,-13.65,0,*69
1517310172.98,50087,9.75,73012.3,-10.57,-13.43,-13.43,0,*69
1517310174.19,50088,9.75,73022.0,-10.57,-13.11,-13.15,0,*62
1517310175.41,50089,9.75,73034.5,-10.57,-13.11,-13.15,0,*63
1517310176.63,50090,9.75,73044.5,-10.57,-13.07,-12.93,0,*63
1517310177.89,50091,9.75,73052.5,-10.59,-12.97,-13.01,0,*6E
1517310179.11,50092,9.75,73050.0,-10.57,-13.65,-13.55,0,*6E
1517310180.32,50093,9.75,73046.0,-10.57,-13.69,-13.69,0,*6C
1517310181.54,50094,9.75,73038.5,-10.57,-12.97,-12.93,0,*6F
1517310182.81,50095,9.69,73046.8,-10.59,-13.01,-12.89,0,*65
1517310184.06,50096,9.75,73046.0,-10.57,-12.97,-12.83,0,*6C
1517310185.3,50097,9.75,73054.3,-10.59,-13.15,-13.11,0,*62
1517310186.56,50098,9.69,73054.5,-10.59,-13.29,-13.15,0,*66
1517310187.83,50099,9.75,73060.3,-10.59,-13.55,-13.33,0,*68
1517310189.07,50100,9.69,73048.8,-10.63,-13.51,-13.51,0,*60
1517310190.36,50101,9.75,73042.8,-10.63,-13.37,-13.37,0,*61
1517310191.65,50102,9.69,73040.8,-10.63,-13.79,-13.61,0,*6B
1517310192.89,50103,9.75,73040.0,-10.65,-13.65,-13.61,0,*61
1517310194.17,50104,9.69,73032.3,-10.65,-14.01,-14.01,0,*62
1517310195.45,50105,9.75,73034.0,-10.67,-13.33,-13.29,0,*6A
1517310196.69,50106,9.75,73034.8,-10.65,-13.61,-13.47,0,*64
1517310197.9,50107,9.75,73046.8,-10.69,-13.55,-13.55,0,*6D
1517310199.12,50108,9.75,73046.5,-10.69,-13.69,-13.55,0,*6D
1517310200.33,50109,9.69,73042.5,-10.69,-13.11,-13.11,0,*63
1517310201.62,50110,9.75,73044.3,-10.67,-12.65,-12.61,0,*61
1517310202.89,50111,9.69,73038.0,-10.69,-12.83,-12.71,0,*67
1517310204.11,50112,9.69,73046.8,-10.69,-12.97,-12.89,0,*66
1517310205.36,50113,9.69,73054.0,-10.67,-13.19,-13.19,0,*66
1517310206.59,50114,9.75,73064.8,-10.69,-13.23,-13.19,0,*66
1517310207.8,50115,9.75,73068.8,-10.69,-13.19,-13.11,0,*66
1517310209.02,50116,9.69,73074.0,-10.69,-13.19,-13.11,0,*65
1517310210.29,50117,9.75,73092.8,-10.69,-12.83,-12.71,0,*61
1517310211.53,50118,9.75,73124.0,-10.69,-13.33,-13.51,0,*67
1517310212.79,50119,9.75,73058.8,-10.71,-14.93,-15.07,0,*67
1517310214.03,50120,9.75,73048.5,-10.71,-14.37,-14.37,0,*61
1517310215.3,50121,9.69,73058.5,-10.73,-14.47,-14.43,0,*66
1517310216.56,50122,9.75,73058.8,-10.73,-14.01,-14.15,0,*64
1517310217.81,50123,9.75,72986.3,-10.75,-14.23,-14.23,0,*66
1517310219.05,50124,9.75,72938.0,-10.75,-14.37,-14.23,0,*64
1517310220.29,50125,9.75,72908.8,-10.77,-14.43,-14.33,0,*65
1517310221.5,50126,9.75,72918.8,-10.77,-14.89,-15.07,0,*66
1517310222.74,50127,9.75,72944.3,-10.81,-14.97,-15.07,0,*61
1517310224.0,50128,9.75,72958.0,-10.83,-14.97,-15.07,0,*6C
1517310225.24,50129,9.75,72974.0,-10.83,-14.19,-14.19,0,*65
1517310226.51,50130,9.75,73000.8,-10.87,-13.73,-13.83,0,*66
1517310227.75,50131,9.75,73022.5,-10.87,-13.51,-13.51,0,*68
1517310229.0,50132,9.75,73052.3,-10.87,-13.51,-13.43,0,*68
1517310230.25,50133,9.69,73052.8,-10.87,-13.51,-13.55,0,*6E
1517310231.49,50134,9.75,73058.5,-10.87,-13.51,-13.51,0,*6D
1517310232.73,50135,9.75,73058.8,-10.87,-13.43,-13.43,0,*6C
1517310234.0,50136,9.75,73064.3,-10.87,-13.55,-13.61,0,*68
1517310235.3,50137,9.69,73072.3,-10.87,-14.01,-14.01,0,*6E
1517310236.54,50138,9.75,73076.0,-10.89,-13.69,-13.61,0,*67
1517310237.8,50139,9.69,73082.5,-10.93,-13.61,-13.61,0,*65
1517310239.08,50140,9.75,73080.3,-10.91,-14.01,-14.15,0,*6C
1517310240.32,50141,9.69,73072.5,-10.91,-13.55,-13.55,0,*68
1517310241.58,50142,9.75,73090.8,-10.91,-13.33,-13.43,0,*6C
1517310242.78,50143,9.75,73098.3,-10.93,-13.47,-13.47,0,*68
1517310244.02,50144,9.75,73106.5,-10.93,-13.43,-13.33,0,*68
1517310245.23,50145,9.75,73110.5,-10.93,-13.19,-13.15,0,*62
1517310246.46,50146,9.75,73112.0,-10.93,-13.15,-13.01,0,*68
1517310247.72,50147,9.69,73110.3,-10.91,-13.33,-13.43,0,*69
1517310248.93,50148,9.75,73100.0,-10.93,-13.55,-13.55,0,*63
1517310250.13,50149,9.69,73106.8,-10.93,-13.47,-13.47,0,*62
1517310251.37,50150,9.69,73102.8,-10.93,-13.73,-13.83,0,*65
1517310252.62,50151,9.75,73100.8,-10.95,-13.69,-13.79,0,*6C
1517310253.89,50152,9.75,73102.8,-10.95,-13.79,-13.93,0,*6A
1517310255.13,50153,9.75,73100.5,-10.95,-14.11,-14.11,0,*6F
1517310256.37,50154,9.75,73096.5,-10.95,-14.23,-14.19,0,*61
1517310257.58,50155,9.75,73086.5,-10.97,-13.69,-13.65,0,*67
1517310258.85,50156,9.75,73090.8,-10.97,-13.29,-13.37,0,*67
1517310260.09,50157,9.75,73102.8,-10.97,-13.01,-13.11,0,*68
1517310261.3,50158,9.75,73088.8,-10.97,-13.15,-13.11,0,*62
1517310262.51,50159,9.69,73078.0,-10.97,-13.15,-13.11,0,*63
1517310263.75,50160,9.69,73088.0,-10.97,-12.89,-12.83,0,*67
1517310265.04,50161,9.75,73088.3,-10.95,-13.33,-13.33,0,*6E
1517310266.28,50162,9.69,73086.5,-10.95,-13.11,-13.07,0,*6A
1517310267.52,50163,9.75,73088.5,-10.95,-13.19,-13.11,0,*64
1517310268.76,50164,9.69,73070.5,-10.93,-13.19,-13.01,0,*64
1517310269.96,50165,9.69,73082.8,-10.93,-13.15,-12.93,0,*63
1517310271.2,50166,9.75,73076.8,-10.95,-12.97,-13.07,0,*61
1517310272.44,50167,9.69,73076.0,-10.93,-13.33,-13.07,0,*69
1517310273.71,50168,9.75,73086.8,-10.91,-13.33,-12.89,0,*63
1517310274.95,50169,9.69,73070.5,-10.89,-13.23,-12.57,0,*69
1517310276.22,50170,9.69,73050.3,-10.89,-13.01,-12.53,0,*65
1517310277.48,50171,9.75,73034.5,-10.89,-13.01,-12.57,0,*60
1517310278.7,50172,9.69,73038.5,-10.89,-12.43,-12.29,0,*6D
1517310279.99,50173,9.69,73050.3,-10.83,-12.71,-12.61,0,*6B
1517310281.26,50174,9.69,73052.5,-10.83,-12.47,-12.35,0,*68
1517310282.53,50175,9.69,73066.8,-10.83,-12.39,-12.35,0,*60
1517310283.8,50176,9.69,73076.5,-10.83,-12.47,-12.35,0,*6A
1517310285.09,50177,9.75,73068.3,-10.79,-12.79,-12.75,0,*67
1517310286.38,50178,9.69,73052.8,-10.79,-12.79,-12.57,0,*68
1517310287.65,50179,9.69,73044.5,-10.79,-12.35,-12.29,0,*68
1517310288.92,50180,9.69,73010.3,-10.79,-12.61,-12.47,0,*67
1517310290.18,50181,9.75,72978.0,-10.77,-11.77,-11.67,0,*6D
1517310291.45,50182,9.75,72934.5,-10.75,-11.59,-11.45,0,*60
1517310292.72,50183,9.69,72922.5,-10.75,-11.59,-11.41,0,*65
1517310294.01,50184,9.69,72938.0,-10.71,-11.59,-11.55,0,*63
1517310295.3,50185,9.69,72952.3,-10.71,-11.81,-11.55,0,*67
1517310296.56,50186,9.75,72988.3,-10.69,-11.81,-11.59,0,*61
1517310297.85,50187,9.69,73000.8,-10.67,-11.63,-11.51,0,*6A
1517310299.12,50188,9.75,73008.5,-10.65,-11.55,-11.37,0,*62
1517310300.4,50189,9.69,73020.0,-10.63,-11.51,-11.51,0,*61
1517310301.67,50190,9.75,73018.0,-10.65,-11.63,-11.55,0,*6A
1517310302.94,50191,9.75,73044.0,-10.63,-11.07,-10.97,0,*60
1517310304.24,50192,9.69,73056.3,-10.59,-10.79,-10.79,0,*62
1517310305.45,50193,9.69,73070.3,-10.57,-10.89,-10.85,0,*61
1517310306.69,50194,9.69,73088.3,-10.53,-10.85,-10.79,0,*6D
1517310307.97,50195,9.69,73108.3,-10.53,-10.71,-10.67,0,*68
1517310309.25,50196,9.69,73118.0,-10.49,-10.67,-10.63,0,*63
1517310310.49,50197,9.69,73114.8,-10.49,-10.63,-10.45,0,*62
1517310311.71,50198,9.75,73110.0,-10.43,-10.57,-10.49,0,*6C
1517310312.96,50199,9.75,73092.0,-10.45,-10.85,-10.75,0,*6B
1517310314.2,50200,9.69,73092.8,-10.43,-10.85,-10.75,0,*6E
1517310315.48,50201,9.69,73092.0,-10.41,-11.29,-11.11,0,*69
1517310316.72,50202,9.69,73086.0,-10.37,-10.93,-10.57,0,*68
1517310317.97,50203,9.75,73092.8,-10.35,-10.67,-10.49,0,*6F
1517310319.24,50204,9.75,73096.3,-10.33,-10.49,-10.41,0,*6A
1517310320.47,50205,9.75,73100.5,-10.31,-10.35,-10.27,0,*62
1517310321.71,50206,9.75,73104.8,-10.31,-10.63,-10.57,0,*65
1517310322.93,50207,9.75,73106.5,-10.27,-10.97,-10.93,0,*60
1517310324.14,50208,9.75,73110.5,-10.27,-10.85,-10.85,0,*6B
1517310325.35,50209,9.69,73094.8,-10.27,-11.11,-11.11,0,*6A
1517310326.55,50210,9.69,73086.8,-10.23,-11.19,-11.11,0,*6E
1517310327.85,50211,9.75,73092.8,-10.25,-12.11,-12.07,0,*66
1517310329.06,50212,9.69,73098.3,-10.23,-11.23,-11.19,0,*6D
1517310330.32,50213,9.75,73106.5,-10.23,-11.51,-11.51,0,*65
1517310331.56,50214,9.75,73088.0,-10.23,-12.35,-12.29,0,*6F
1517310332.85,50215,9.75,73100.0,-10.25,-12.61,-12.53,0,*64
1517310334.11,50216,9.69,73096.0,-10.23,-12.15,-12.15,0,*60
1517310335.38,50217,9.69,73094.5,-10.23,-12.15,-12.07,0,*62
1517310336.64,50218,9.75,73080.0,-10.23,-12.71,-12.61,0,*6F
1517310337.88,50219,9.69,73082.5,-10.25,-13.43,-13.43,0,*69
1517310339.1,50220,9.75,73090.3,-10.27,-14.23,-14.23,0,*61
1517310340.34,50221,9.69,73092.0,-10.29,-14.65,-14.65,0,*6E
1517310341.55,50222,9.75,73086.3,-10.31,-14.29,-14.29,0,*64
1517310342.81,50223,9.75,73080.5,-10.31,-14.43,-14.43,0,*65
1517310344.06,50224,9.69,73076.3,-10.33,-14.19,-14.15,0,*6C
1517310345.3,50225,9.69,73078.8,-10.33,-13.69,-13.55,0,*6E
1517310346.52,50226,9.69,73076.8,-10.35,-13.19,-13.15,0,*68
1517310347.76,50227,9.75,73088.5,-10.37,-13.47,-13.23,0,*65
1517310349.05,50228,9.75,73066.0,-10.37,-13.37,-13.37,0,*68
1517310350.31,50229,9.75,73042.8,-10.37,-13.79,-13.73,0,*63
1517310351.58,50230,9.75,73060.0,-10.41,-13.93,-13.83,0,*61
1517310352.8,50231,9.75,73056.5,-10.43,-14.65,-14.65,0,*63
1517310354.02,50232,9.69,73050.8,-10.43,-14.37,-14.23,0,*65
1517310355.24,50233,9.75,73050.5,-10.45,-14.29,-14.29,0,*67
1517310356.52,50234,9.75,73052.0,-10.47,-14.43,-14.43,0,*62
1517310357.78,50235,9.69,73048.0,-10.47,-13.61,-13.43,0,*63
1517310359.04,50236,9.75,73046.3,-10.49,-13.97,-13.87,0,*6F
1517310360.34,50237,9.75,73040.0,-10.51,-14.05,-14.05,0,*66
1517310361.64,50238,9.69,73046.0,-10.51,-14.05,-14.05,0,*69
1517310362.89,50239,9.75,73052.8,-10.51,-13.51,-13.51,0,*68
1517310364.15,50240,9.75,73024.0,-10.51,-13.61,-13.47,0,*62
1517310365.36,50241,9.75,73022.3,-10.53,-13.23,-13.15,0,*60
1517310366.61,50242,9.75,73008.8,-10.55,-13.23,-13.11,0,*61
1517310367.83,50243,9.69,73052.0,-10.53,-13.23,-13.19,0,*6E
1517310369.08,50244,9.75,73038.8,-10.55,-13.55,-13.55,0,*66
1517310370.31,50245,9.75,73026.3,-10.55,-13.65,-13.65,0,*67
1517310371.56,50246,9.75,73054.0,-10.55,-13.19,-13.19,0,*64
1517310372.86,50247,9.75,73094.5,-10.55,-13.29,-13.29,0,*65
1517310374.15,50248,9.75,73094.3,-10.59,-13.97,-13.87,0,*67
1517310375.39,50249,9.69,73100.3,-10.59,-14.23,-14.11,0,*66
1517310376.66,50250,9.75,73086.0,-10.59,-14.55,-14.61,0,*68
1517310377.91,50251,9.75,73062.0,-10.59,-14.23,-14.29,0,*64
1517310379.15,50252,9.69,73044.5,-10.63,-14.33,-14.37,0,*60
1517310380.39,50253,9.75,73000.5,-10.65,-15.21,-15.25,0,*67
1517310381.6,50254,9.75,73020.8,-10.69,-14.65,-14.65,0,*68
1517310382.82,50255,9.75,72968.3,-10.69,-14.23,-14.11,0,*68
1517310384.08,50256,9.69,72976.5,-10.69,-13.79,-13.79,0,*6A
1517310385.33,50257,9.75,73018.3,-10.69,-13.79,-13.79,0,*6B
1517310386.6,50258,9.69,73032.0,-10.71,-13.97,-13.93,0,*69
1517310387.82,50259,9.75,73042.8,-10.73,-14.23,-14.11,0,*6F
1517310389.03,50260,9.69,73062.5,-10.73,-13.55,-13.47,0,*67
1517310390.28,50261,9.69,73062.5,-10.73,-13.37,-13.23,0,*60
1517310391.49,50262,9.75,73070.3,-10.73,-13.73,-13.69,0,*6D
1517310392.73,50263,9.69,73068.5,-10.71,-13.11,-13.11,0,*65
1517310394.0,50264,9.69,73072.5,-10.73,-12.71,-12.61,0,*61
1517310395.27,50265,9.75,73076.0,-10.71,-12.53,-12.47,0,*66
1517310396.53,50266,9.75,73078.5,-10.73,-12.71,-12.57,0,*66
1517310397.82,50267,9.69,73080.8,-10.71,-12.79,-12.57,0,*6D
1517310399.09,50268,9.75,73080.5,-10.71,-12.53,-12.39,0,*62
1517310400.33,50269,9.75,73064.3,-10.69,-12.39,-12.35,0,*6A
1517310401.55,50270,9.69,73042.0,-10.69,-12.47,-12.39,0,*67
1517310402.82,50271,9.69,73014.0,-10.69,-12.71,-12.71,0,*6F
1517310404.09,50272,9.75,73014.5,-10.67,-13.01,-13.15,0,*67
1517310405.33,50273,9.75,73026.0,-10.67,-13.19,-13.15,0,*6F
1517310406.59,50274,9.69,73014.8,-10.67,-13.47,-13.33,0,*67
1517310407.83,50275,9.75,73014.8,-10.69,-13.43,-13.37,0,*68
1517310409.08,50276,9.75,72998.5,-10.69,-13.51,-13.37,0,*68
1517310410.35,50277,9.69,73000.5,-10.69,-14.05,-14.05,0,*69
1517310411.62,50278,9.75,73026.0,-10.71,-14.55,-14.65,0,*6C
1517310412.85,50279,9.69,73030.8,-10.73,-14.23,-14.15,0,*69
1517310414.11,50280,9.75,73026.5,-10.73,-13.87,-13.87,0,*6A
1517310415.35,50281,9.75,73042.3,-10.75,-13.43,-13.43,0,*6D
1517310416.62,50282,9.75,73046.3,-10.75,-13.69,-13.61,0,*66
1517310417.85,50283,9.75,73042.8,-10.77,-14.01,-13.93,0,*61
1517310419.12,50284,9.75,73034.8,-10.75,-13.83,-13.73,0,*67
1517310420.41,50285,9.75,73044.0,-10.75,-13.29,-13.29,0,*69
1517310421.66,50286,9.75,73040.8,-10.75,-13.23,-13.23,0,*6A
1517310422.91,50287,9.75,73070.5,-10.75,-13.23,-13.23,0,*6B
1517310424.17,50288,9.69,73062.0,-10.79,-13.33,-13.43,0,*6F
1517310425.43,50289,9.69,73066.0,-10.77,-13.33,-13.33,0,*67
1517310426.66,50290,9.75,73068.5,-10.77,-13.07,-13.01,0,*69
1517310427.89,50291,9.69,73070.3,-10.77,-13.07,-13.01,0,*68
1517310429.1,50292,9.75,73072.3,-10.77,-13.19,-13.15,0,*61
1517310430.3,50293,9.75,73070.3,-10.77,-13.47,-13.47,0,*6C
1517310431.54,50294,9.75,73078.3,-10.77,-13.93,-14.01,0,*67
1517310432.82,50295,9.75,73100.0,-10.79,-13.87,-13.87,0,*64
1517310434.03,50296,9.75,73050.0,-10.81,-13.93,-13.93,0,*60
1517310435.28,50297,9.75,73024.3,-10.81,-14.05,-13.93,0,*69
1517310436.57,50298,9.75,73024.3,-10.79,-14.05,-14.05,0,*69
1517310437.85,50299,9.69,73016.0,-10.83,-14.11,-13.97,0,*64
1517310439.15,50300,9.75,73004.3,-10.83,-14.05,-13.97,0,*60
1517310440.42,50301,9.75,73000.5,-10.83,-14.37,-14.51,0,*6D
1517310441.7,50302,9.69,72988.8,-10.87,-15.01,-15.01,0,*6A
1517310442.91,50303,9.75,72990.8,-10.89,-15.11,-15.15,0,*61
1517310444.2,50304,9.75,72990.3,-10.91,-14.75,-14.79,0,*67
1517310445.44,50305,9.75,73006.8,-10.91,-14.61,-14.61,0,*6A
1517310446.71,50306,9.75,72992.3,-10.95,-14.51,-14.69,0,*66
1517310448.0,50307,9.75,72978.5,-10.95,-14.93,-14.97,0,*68
1517310449.27,50308,9.75,72976.3,-10.95,-14.61,-14.47,0,*67
1517310450.51,50309,9.75,72982.8,-10.95,-13.69,-13.69,0,*62
1517310451.77,50310,9.75,72988.0,-10.95,-13.83,-13.69,0,*6E
1517310453.01,50311,9.75,73004.8,-10.95,-13.69,-13.69,0,*6B
1517310454.26,50312,9.75,73012.5,-10.95,-14.23,-14.33,0,*69
1517310455.47,50313,9.69,73034.3,-10.97,-14.29,-14.23,0,*61
1517310456.73,50314,9.75,73032.0,-10.99,-14.65,-14.55,0,*61
1517310457.97,50315,9.75,73028.5,-10.97,-14.75,-14.89,0,*6E
1517310459.23,50316,9.75,73034.5,-11.01,-14.75,-14.75,0,*60
1517310460.45,50317,9.69,73046.0,-11.01,-14.11,-14.11,0,*61
1517310461.72,50318,9.75,73040.8,-11.03,-13.61,-13.55,0,*6B
1517310462.98,50319,9.75,73034.8,-11.03,-13.87,-13.73,0,*66
1517310464.19,50320,9.75,73040.5,-11.01,-13.65,-13.65,0,*65
1517310465.46,50321,9.75,73030.3,-11.03,-13.61,-13.51,0,*65
1517310466.73,50322,9.75,73018.8,-11.03,-13.55,-13.61,0,*62
1517310467.96,50323,9.75,73054.3,-11.03,-13.47,-13.43,0,*60
1517310469.18,50324,9.75,73050.3,-11.01,-13.55,-13.55,0,*61
1517310470.47,50325,9.75,73082.5,-11.03,-13.29,-13.29,0,*62
1517310471.68,50326,9.75,73072.3,-11.01,-13.43,-13.43,0,*63
1517310472.95,50327,9.75,73092.5,-11.03,-13.29,-13.19,0,*63
1517310474.19,50328,9.69,73104.5,-11.03,-13.47,-13.69,0,*63
1517310475.42,50329,9.75,73092.8,-11.01,-14.55,-14.69,0,*63
1517310476.71,50330,9.69,73054.0,-11.03,-14.75,-14.75,0,*66
1517310477.94,50331,9.75,73040.3,-11.05,-14.19,-14.19,0,*61
1517310479.19,50332,9.75,73068.8,-11.03,-14.15,-14.15,0,*64
1517310480.46,50333,9.75,73056.3,-11.05,-14.75,-14.79,0,*6F
1517310481.69,50334,9.69,73052.5,-11.09,-14.65,-14.61,0,*6C
1517310482.92,50335,9.75,73044.8,-11.09,-14.65,-14.65,0,*69
1517310484.15,50336,9.75,73052.0,-11.09,-14.33,-14.23,0,*6B
1517310485.39,50337,9.75,73022.3,-11.09,-14.19,-14.19,0,*6B
1517310486.6,50338,9.75,73010.8,-11.11,-14.33,-14.19,0,*65
1517310487.86,50339,9.75,72992.5,-11.11,-13.83,-13.79,0,*69
1517310489.12,50340,9.75,72980.0,-11.09,-13.73,-13.61,0,*68
1517310490.34,50341,9.69,72970.5,-11.11,-13.51,-13.47,0,*64
1517310491.6,50342,9.75,72970.0,-11.11,-13.33,-13.33,0,*60
1517310492.83,50343,9.75,72974.0,-11.09,-13.11,-13.07,0,*6F
1517310494.09,50344,9.75,72972.8,-11.09,-13.33,-13.19,0,*67
1517310495.34,50345,9.75,72966.0,-11.05,-13.01,-12.93,0,*68
1517310496.56,50346,9.69,72948.5,-11.05,-13.07,-12.93,0,*6D
1517310497.8,50347,9.75,72954.0,-11.05,-13.61,-13.47,0,*64
1517310499.04,50348,9.75,72972.8,-11.03,-13.19,-12.93,0,*6A